This is the latest recevied weather packets stored in our database for station/object KC2YXU-1. If no packets are shown the sender has not sent any weather packets the latest 10 day(s).
| Time | Temp. | Humidity | Pressure | Rain* | Wind** | Luminosity | Snow |
|---|---|---|---|---|---|---|---|
| 1777291372 | 7.22° C | 93% | 1024.7 hPa | 0 mm | - | - | - |
| 1777291072 | 6.67° C | 94% | 1024.8 hPa | 0 mm | - | - | - |
| 1777290473 | 6.11° C | 95% | 1024.7 hPa | 0 mm | - | - | - |
| 1777290172 | 5.56° C | 95% | 1024.7 hPa | 0 mm | - | - | - |
| 1777289872 | 5° C | 95% | 1024.6 hPa | 0 mm | - | - | - |
| 1777289274 | 4.44° C | 95% | 1024.6 hPa | 0 mm | - | - | - |
| 1777288972 | 3.89° C | 95% | 1024.7 hPa | 0 mm | - | - | - |
| 1777288674 | 3.89° C | 94% | 1024.5 hPa | 0 mm | - | - | - |
| 1777288372 | 3.33° C | 94% | 1024.5 hPa | 0 mm | - | - | - |
| 1777288073 | 3.33° C | 94% | 1024.4 hPa | 0 mm | - | - | - |
| 1777287773 | 2.78° C | 94% | 1024.4 hPa | 0 mm | - | - | - |
| 1777287475 | 2.78° C | 94% | 1024.4 hPa | 0 mm | - | - | - |
| 1777287172 | 2.78° C | 94% | 1024.3 hPa | 0 mm | - | - | - |
| 1777286873 | 2.78° C | 93% | 1024.3 hPa | 0 mm | - | - | - |
| 1777286572 | 2.78° C | 93% | 1024.3 hPa | 0 mm | - | - | - |
| 1777286275 | 2.22° C | 93% | 1024.1 hPa | 0 mm | - | - | - |
| 1777285974 | 2.78° C | 93% | 1024.1 hPa | 0 mm | - | - | - |
| 1777285673 | 2.78° C | 93% | 1024.2 hPa | 0 mm | - | - | - |
| 1777285372 | 2.78° C | 93% | 1024.1 hPa | 0 mm | - | - | - |
| 1777285073 | 2.78° C | 93% | 1024 hPa | 0 mm | - | - | - |
| 1777284772 | 2.78° C | 93% | 1023.8 hPa | 0 mm | - | - | - |
| 1777284473 | 2.78° C | 93% | 1023.8 hPa | 0 mm | - | - | - |
| 1777284172 | 2.78° C | 93% | 1023.8 hPa | 0 mm | - | - | - |
| 1777283573 | 2.78° C | 93% | 1023.8 hPa | 0 mm | - | - | - |
| 1777283269 | 2.78° C | 93% | 1023.8 hPa | 0 mm | - | - | - |
* Rain latest hour (hover to see other rain measurements)
** Current wind speed in m/s (hover to see current wind gust speed)